Location: Unspecified
(0.0000°N, 0.0000°E)
Time: 01:48:36
(UTC+00:00)

Envisat - Pass Details

Date: 01 April 2019
Orbit: 764 x 766 km, 98.1° (Epoch: 25 September)

Event Time Altitude Azimuth Distance (km) Brightness Sun altitude
Rises 18:49:43 0° 162° (SSE) 3,228 6.0 -11.4°
Reaches altitude 10° 18:52:02 10° 159° (SSE) 2,300 5.2 -12.0°
Maximum altitude 18:57:03 64° 78° (ENE) 846 3.0 -13.2°
Drops below altitude 10° 19:02:03 10° 357° (N) 2,292 5.6 -14.5°
Sets 19:04:22 0° 354° (N) 3,215 6.4 -15.1°
